Temperature
26 26 26 26 26 27 26 27 27 28 28 28 28 27 25 24 23 22 21 20 20 19 19 18 18 18 18 17 17 17 17 17 17 17 17 17 17 17 17 17 16 16 16 16
24 25 26 25 26 26 26 27 27 27 27 28 26 25 24 23 22 21 21 20 19 19 18 18 18 18 18 17 17 17 17 17 17 17 17 17 17 17 17 17 17 16 16 16
24 25 24 24 26 26 26 27 27 26 27 26 25 24 23 22 21 20 20 19 18 18 18 17 18 18 17 17 17 17 17 17 17 17 17 17 17 16 16 16 16 16 16 16
23 23 22 25 26 26 25 26 27 26 26 25 24 21 20 19 19 19 18 18 17 17 17 17 17 17 17 17 17 17 17 17 17 16 16 16 16 16 16 16 16 16 16 15
22 22 23 24 24 24 24 24 25 25 25 23 21 20 18 17 17 17 16 16 16 16 17 17 17 17 17 17 17 16 16 16 16 16 16 16 16 16 16 16 16 15 15 15
21 20 21 23 23 23 23 23 23 23 23 21 21 22 19 16 15 15 15 15 15 15 16 16 16 16 16 16 16 16 16 15 16 16 16 16 16 16 15 15 15 15 15 15
20 20 22 22 21 22 21 22 21 21 20 20 21 20 16 15 14 14 14 14 14 15 15 15 15 15 15 15 15 15 15 15 15 15 15 15 15 15 15 15 15 14 14 14
19 19 20 20 20 20 19 18 18 19 19 18 17 15 14 14 13 13 13 13 13 14 14 14 14 15 15 14 14 14 14 14 14 14 14 14 14 14 14 14 14 14 13 13
19 19 19 18 18 17 16 17 17 17 16 15 15 14 13 13 13 13 12 12 13 13 13 13 13 14 14 13 13 14 14 14 13 13 13 13 13 13 13 13 13 13 13 13
18 18 18 17 16 16 16 16 16 15 15 14 13 13 12 12 12 12 12 12 12 12 12 12 12 13 13 12 13 13 13 13 13 13 13 13 12 12 12 12 12 12 12 12
17 17 17 16 15 15 14 14 14 13 13 13 13 12 12 11 11 11 11 11 12 12 12 12 12 12 12 12 12 12 12 12 12 12 12 12 12 11 11 11 11 11 11 11
16 16 16 15 14 13 13 13 13 13 12 12 12 11 11 11 11 11 11 11 11 11 11 11 11 11 11 11 11 11 11 11 11 11 11 11 11 11 11 10 10 10 10 10
14 14 13 13 12 12 12 12 12 12 11 11 11 11 11 10 11 11 11 11 11 10 10 11 11 11 11 11 11 11 11 11 11 10 10 10 10 10 10 10 10 9 9 9
13 13 12 12 12 11 11 11 11 11 10 10 10 10 10 10 10 10 10 10 10 10 10 10 10 10 10 10 10 10 10 10 10 10 10 10 10 10 10 10 9 9 9 8
12 12 12 11 11 11 11 10 10 10 10 10 10 10 10 10 10 10 10 10 10 10 10 10 10 9 10 10 10 10 10 10 9 9 10 9 9 9 9 9 9 9 8 8
11 11 11 11 11 11 10 10 10 10 10 10 10 10 10 10 10 9 9 10 10 10 9 9 9 9 9 9 9 9 9 9 9 9 9 9 9 9 9 8 8 8 7 7
11 11 11 11 11 11 10 10 10 10 10 10 10 10 10 10 9 9 9 9 9 9 9 9 9 9 9 9 9 9 9 9 8 9 9 8 8 8 8 8 7 7 6 6
11 11 11 11 11 11 10 10 10 10 10 10 10 10 10 10 9 9 9 9 9 9 9 9 9 8 8 8 8 9 9 9 8 8 8 7 7 7 7 7 7 6 6 5
11 11 11 11 11 11 11 11 10 10 10 10 10 10 10 9 9 9 9 9 9 8 8 8 8 8 8 8 8 8 8 8 8 8 7 7 7 7 6 6 6 5 5 5
11 11 11 11 11 11 11 11 10 10 10 10 10 10 9 9 9 9 9 9 8 8 8 8 8 7 7 8 8 8 8 8 7 7 7 6 6 6 5 5 5 5 4 4
10 11 11 11 11 11 10 10 10 10 10 10 10 10 9 9 9 9 9 8 8 8 8 8 7 7 7 7 7 7 7 7 7 6 6 6 5 5 5 4 4 4 3 3
10 10 10 10 10 10 10 10 10 10 10 10 10 9 9 9 8 8 8 8 8 7 7 7 7 7 7 7 7 6 6 6 6 5 5 5 4 4 4 4 3 3 3 2
10 10 10 10 10 10 10 10 10 10 9 9 9 9 9 9 9 8 8 7 7 7 7 6 6 6 6 6 6 5 5 5 5 5 4 4 4 3 3 3 2 2 2 1
10 10 10 10 10 10 9 9 9 9 9 9 9 8 8 8 8 8 7 7 7 6 6 6 6 5 5 5 5 4 4 4 4 4 3 3 3 2 2 2 1 1 1 1
9 9 9 9 9 9 9 9 8 8 8 8 8 8 8 8 7 7 6 6 6 6 5 5 5 4 4 4 4 4 3 3 3 3 2 2 2 2 1 1 1 1 0 0
9 9 9 9 9 9 9 9 9 8 8 8 8 7 7 7 7 6 6 6 5 5 5 4 4 4 4 3 3 3 3 2 2 2 2 2 2 1 1 1 0 0 0 -0
9 8 8 8 8 8 8 8 8 8 8 8 7 7 7 6 6 6 6 5 5 4 4 4 3 3 3 3 3 2 2 2 2 2 1 1 1 1 1 0 0 0 -0 -0
Wind_Speed
12 10 10 12 13 13 15 16 16 14 12 8 4 3 5 7 9 10 11 12 12 12 12 12 12 12 12 12 12 13 14 13 13 12 12 11 11 11 11 10 11 10 10 10
13 12 13 15 16 16 17 17 17 16 14 6 3 3 5 7 9 10 10 10 11 11 11 11 10 10 10 11 11 12 12 12 12 11 11 11 11 11 10 11 10 10 10 10
13 12 13 16 16 17 17 17 16 17 13 6 6 6 6 7 8 9 9 9 9 9 9 9 9 8 9 9 10 11 11 11 11 11 11 11 11 10 10 10 10 9 9 9
11 10 15 10 6 10 14 15 14 13 9 7 4 3 4 5 7 7 7 7 7 7 7 7 7 7 8 8 9 9 9 9 9 9 9 9 9 9 9 8 8 8 8 8
9 13 13 10 5 7 10 13 10 10 7 5 6 7 5 5 6 6 6 6 5 6 6 7 7 7 8 8 8 7 7 7 6 7 7 8 8 8 7 6 6 6 6 6
9 11 11 5 3 5 8 12 4 5 5 7 10 8 5 8 8 8 8 7 7 7 8 8 7 8 9 8 8 6 6 5 5 4 4 5 5 5 5 5 5 5 4 4
12 12 9 3 5 4 8 4 4 3 5 8 7 2 11 11 10 10 10 10 10 10 9 9 9 10 11 10 8 7 7 7 6 6 5 4 4 3 4 5 4 4 3 3
8 10 8 5 5 4 6 8 6 4 3 5 8 13 14 13 12 12 12 12 12 11 11 10 10 11 12 11 9 10 10 10 9 7 6 6 5 5 4 4 5 4 4 3
4 5 4 6 6 7 8 7 5 1 5 10 12 14 15 14 13 12 12 12 12 13 13 12 11 11 12 11 10 11 11 11 10 10 9 8 7 6 5 4 4 3 3 3
6 7 6 7 7 7 6 3 1 6 9 12 14 16 16 14 13 13 12 12 12 14 14 13 13 13 12 11 11 12 12 11 10 10 10 10 8 7 6 6 5 4 4 3
8 8 7 6 5 3 2 4 7 9 11 13 17 17 16 14 13 12 12 12 12 13 14 14 13 13 12 11 10 11 11 10 10 10 10 10 10 9 9 9 7 6 5 5
7 6 5 4 2 3 4 6 9 13 14 15 16 17 17 15 13 12 13 13 13 14 14 14 13 13 11 10 10 10 10 9 8 8 7 7 8 9 14 11 12 13 12 9
5 3 1 2 4 5 7 10 12 14 16 16 16 17 17 15 13 13 14 14 14 13 13 13 13 13 11 10 10 10 10 8 7 7 6 6 6 6 6 8 10 11 11 11
2 2 4 5 6 8 11 14 16 17 16 16 16 16 16 16 15 14 14 13 13 13 13 13 13 12 10 10 10 10 9 8 7 6 5 5 5 4 4 4 4 5 8 9
3 5 7 9 11 12 14 16 18 17 16 16 15 15 16 15 14 13 12 12 12 13 12 12 12 11 10 10 10 9 8 7 6 6 5 5 4 4 4 4 4 4 4 5
8 10 12 12 13 14 15 16 17 16 16 16 15 15 15 15 14 13 11 11 12 12 11 11 11 10 9 8 8 7 7 8 6 5 5 5 5 4 4 4 4 4 4 5
9 11 13 14 14 14 14 15 16 16 16 15 15 15 14 14 13 12 11 11 11 11 10 10 9 8 7 7 6 5 5 5 3 4 5 5 5 4 4 4 4 4 5 7
8 11 12 14 14 15 15 15 15 16 15 15 14 14 13 13 12 11 11 11 11 10 9 8 7 7 7 6 5 4 4 4 4 5 5 5 4 4 4 4 5 5 4 4
12 13 14 14 14 14 15 15 15 14 14 14 13 13 12 11 11 10 9 9 9 9 8 7 4 5 6 5 3 2 4 4 4 4 4 3 3 4 4 4 5 5 4 5
14 15 15 15 15 15 14 14 14 13 12 13 13 12 11 11 10 9 9 8 7 7 6 5 5 5 5 4 4 3 4 3 4 4 4 4 4 4 4 4 4 5 5 5
15 16 16 15 14 14 13 13 12 13 12 11 11 11 10 9 8 8 7 8 8 6 6 4 4 5 5 3 2 4 4 4 4 4 4 4 4 5 5 5 5 5 5 5
13 14 14 14 14 12 11 11 11 12 11 10 10 10 10 9 8 7 7 6 7 3 3 5 6 7 6 5 4 5 5 5 5 5 5 5 5 5 5 5 5 5 5 5
11 12 13 13 12 12 11 10 10 10 10 9 9 8 7 5 5 5 6 6 6 4 4 7 7 6 6 3 5 5 6 5 5 5 5 5 5 5 5 5 5 5 6 6
11 12 12 12 12 12 11 10 10 9 9 9 8 7 6 5 5 6 7 8 7 5 7 8 6 4 3 4 5 5 5 5 5 5 5 5 5 5 5 5 5 6 6 6
11 11 11 11 10 10 10 10 10 9 8 7 8 7 5 5 6 6 7 8 7 5 7 8 5 2 3 5 5 5 5 6 5 5 5 5 5 5 5 5 5 5 5 6
10 9 9 8 8 7 6 6 6 6 6 6 6 5 5 5 6 6 6 7 8 6 5 5 5 3 5 5 6 5 5 5 4 4 5 5 5 5 5 5 5 5 5 5
10 9 7 7 7 6 5 5 5 5 5 5 5 5 5 5 5 6 6 6 6 5 5 4 4 4 5 5 5 4 4 4 4 4 4 4 4 4 4 4 4 4 5 5
Wind_Direction
267 276 267 259 250 240 242 252 261 266 263 259 226 205 185 173 169 167 164 165 168 169 168 171 174 178 182 184 186 185 185 190 193 194 195 198 199 200 199 201 206 208 212 215
260 259 260 259 254 249 247 251 254 261 261 260 225 182 174 173 172 170 168 165 164 164 162 167 172 177 179 182 184 184 188 193 193 193 194 198 200 201 202 204 210 211 215 217
260 258 263 253 249 249 250 250 252 254 256 228 209 195 180 172 171 168 162 158 159 162 162 164 170 175 179 181 180 183 189 193 192 193 194 198 201 201 204 205 207 213 217 220
260 256 249 254 263 263 260 257 254 257 253 226 202 150 137 156 158 152 148 145 145 149 150 154 158 164 168 167 171 178 184 188 190 192 192 193 197 201 203 204 205 209 214 217
248 248 255 255 262 269 264 260 259 255 235 202 152 139 131 124 130 130 126 122 124 130 132 130 136 145 147 149 151 156 163 169 177 186 189 192 196 200 202 202 203 205 209 211
242 251 253 263 327 304 273 255 254 248 210 190 181 203 155 124 114 109 105 103 106 109 111 111 114 121 124 124 127 133 137 141 145 152 159 174 182 186 182 183 188 192 194 200
242 247 253 329 347 300 245 274 354 278 212 200 210 147 122 120 111 105 100 97 96 96 94 95 103 108 107 105 105 108 109 107 105 108 114 117 127 144 154 159 157 157 152 146
238 242 245 1 326 291 316 332 315 284 206 158 113 114 120 117 111 104 98 96 96 93 89 88 96 101 99 95 97 99 98 94 89 84 86 95 102 104 114 126 131 131 129 118
256 268 328 333 314 311 309 302 295 231 137 128 126 125 120 114 107 100 96 95 95 94 88 80 80 89 92 91 95 96 93 90 86 81 77 77 84 92 97 101 104 110 113 111
258 265 290 312 313 305 295 293 126 126 126 127 126 122 117 110 104 100 95 93 94 93 90 82 77 77 82 88 93 93 90 88 86 82 75 67 60 62 65 65 71 76 81 83
256 268 284 303 321 339 46 88 109 117 119 122 123 119 115 110 105 101 97 92 89 90 89 87 83 80 80 82 87 89 87 85 84 81 78 73 66 54 58 54 50 51 55 57
271 284 277 298 13 70 99 109 118 120 116 117 119 117 113 108 105 103 99 95 92 89 88 88 85 81 78 78 81 87 88 84 83 83 83 85 86 79 60 66 69 63 53 54
274 286 345 81 78 89 108 112 114 117 117 116 113 112 111 109 105 100 96 92 91 92 90 88 83 77 74 75 79 79 81 78 78 76 79 81 85 91 94 89 85 80 75 68
289 153 115 99 100 103 108 110 107 107 109 110 111 110 108 106 103 98 96 97 97 95 92 89 84 78 75 77 79 80 81 78 74 75 73 72 72 72 72 75 92 94 98 95
67 112 119 114 109 108 110 113 109 108 109 109 109 109 109 108 105 103 104 106 103 98 93 89 84 77 73 75 75 72 69 68 65 66 66 63 59 60 59 56 54 56 67 95
103 109 114 114 114 116 116 115 113 114 114 113 111 111 111 110 108 106 105 105 101 94 90 86 81 75 73 74 77 79 74 58 46 60 63 61 53 48 49 49 47 44 43 36
123 126 124 122 120 116 114 114 116 119 117 115 115 116 114 112 109 106 102 97 94 92 88 85 80 76 72 67 61 69 78 83 76 56 56 51 46 42 39 36 39 43 49 51
118 122 124 123 122 120 120 119 120 120 119 120 119 118 117 116 113 110 108 106 102 93 85 81 79 80 74 62 47 46 60 61 56 55 55 46 35 33 34 37 43 46 44 56
116 117 118 119 120 120 118 118 118 118 120 121 120 119 117 115 114 113 113 110 107 99 85 80 73 80 76 56 19 61 49 55 60 59 59 65 40 41 39 39 38 34 30 28
117 117 117 117 115 115 116 117 117 117 119 120 119 117 115 114 115 115 112 100 84 83 87 76 80 69 68 48 338 48 54 49 51 55 49 45 43 40 39 36 31 28 24 21
116 117 116 114 112 112 114 117 118 119 119 120 120 119 117 116 117 119 119 106 92 83 90 90 69 61 53 29 323 47 53 49 48 49 43 39 38 34 32 28 26 25 22 19
109 111 112 113 112 111 113 116 118 119 118 117 116 116 118 118 116 109 94 93 103 78 85 80 70 55 21 338 52 57 57 53 49 47 45 38 34 33 32 28 26 25 23 21
108 110 112 112 112 111 109 109 110 112 112 112 111 112 111 109 117 121 113 100 103 83 74 71 67 47 343 25 58 63 61 58 54 52 53 48 41 37 34 30 29 28 25 21
104 106 108 110 112 110 107 104 103 104 107 108 108 112 119 120 106 94 97 99 86 87 86 84 76 41 347 64 65 65 65 61 57 55 53 53 48 43 41 37 32 29 28 23
108 109 110 113 112 110 112 114 112 114 113 108 107 104 99 97 103 102 105 109 114 117 108 104 99 40 70 74 73 69 66 57 49 47 58 50 47 49 46 40 34 29 24 18
106 102 98 95 97 107 116 120 122 119 116 113 108 105 105 105 109 113 116 122 121 115 107 110 110 114 86 83 78 74 76 86 78 63 57 53 51 49 45 36 33 25 20 19
108 105 105 105 104 103 106 109 112 111 110 114 116 117 117 116 115 115 118 120 122 119 110 107 103 96 90 89 87 83 79 76 70 66 64 58 55 50 47 37 27 22 12 19
Height
1453 1450 1451 1453 1452 1452 1454 1451 1453 1447 1445 1443 1446 1451 1456 1459 1463 1465 1468 1471 1474 1477 1480 1483 1486 1489 1492 1495 1499 1502 1505 1508 1511 1514 1517 1519 1522 1524 1526 1529 1531 1534 1536 1538
1457 1452 1451 1452 1449 1448 1449 1448 1447 1446 1445 1443 1448 1453 1456 1459 1462 1464 1467 1470 1473 1476 1478 1481 1484 1487 1490 1493 1496 1499 1502 1505 1508 1511 1513 1516 1518 1521 1523 1525 1528 1530 1532 1534
1459 1451 1453 1455 1446 1444 1443 1441 1442 1444 1442 1444 1449 1453 1456 1459 1462 1464 1466 1469 1472 1474 1477 1479 1482 1485 1488 1491 1494 1496 1499 1503 1505 1508 1510 1513 1515 1518 1520 1522 1524 1526 1528 1529
1458 1459 1468 1445 1437 1438 1440 1438 1437 1438 1440 1444 1449 1454 1458 1460 1462 1464 1466 1469 1471 1473 1476 1478 1481 1483 1486 1489 1492 1494 1497 1500 1503 1505 1507 1509 1512 1514 1516 1518 1519 1521 1523 1525
1459 1458 1451 1442 1440 1442 1443 1440 1437 1438 1441 1446 1451 1455 1459 1461 1463 1465 1467 1468 1471 1473 1475 1477 1479 1482 1484 1486 1489 1492 1495 1497 1500 1502 1504 1506 1508 1510 1512 1514 1516 1517 1519 1521
1459 1463 1458 1444 1442 1443 1445 1443 1439 1440 1443 1447 1450 1450 1456 1462 1463 1465 1467 1468 1470 1472 1474 1476 1478 1481 1483 1485 1488 1490 1493 1495 1497 1499 1501 1503 1505 1507 1509 1511 1512 1514 1515 1517
1458 1458 1447 1443 1445 1445 1450 1444 1443 1443 1444 1447 1447 1449 1457 1461 1464 1466 1467 1469 1471 1473 1474 1476 1478 1480 1482 1485 1487 1490 1492 1494 1496 1498 1499 1501 1503 1505 1506 1508 1509 1511 1512 1513
1455 1457 1452 1446 1446 1448 1448 1447 1445 1444 1445 1448 1451 1454 1458 1462 1465 1467 1469 1471 1473 1474 1476 1478 1480 1482 1483 1486 1489 1491 1493 1494 1496 1497 1499 1500 1502 1503 1505 1506 1507 1508 1509 1511
1453 1453 1450 1450 1451 1450 1450 1448 1446 1446 1447 1449 1452 1457 1461 1464 1467 1470 1472 1474 1476 1476 1478 1480 1483 1484 1486 1489 1491 1492 1494 1495 1497 1498 1499 1501 1502 1503 1504 1505 1506 1508 1509 1509
1453 1449 1450 1450 1449 1449 1448 1447 1447 1447 1449 1451 1454 1459 1463 1467 1470 1473 1475 1477 1479 1480 1481 1483 1486 1487 1489 1492 1493 1495 1496 1497 1498 1500 1501 1502 1503 1504 1505 1506 1506 1507 1508 1508
1451 1450 1449 1449 1449 1448 1447 1447 1448 1449 1451 1454 1457 1462 1465 1469 1473 1476 1479 1481 1482 1484 1485 1487 1489 1492 1494 1495 1497 1498 1499 1500 1501 1502 1503 1503 1504 1504 1505 1505 1506 1507 1507 1507
1450 1449 1449 1449 1449 1449 1448 1449 1450 1452 1455 1459 1461 1465 1469 1473 1477 1480 1482 1485 1487 1489 1490 1492 1494 1496 1497 1499 1500 1501 1502 1503 1505 1505 1506 1506 1507 1507 1507 1507 1507 1507 1507 1507
1450 1449 1450 1450 1451 1451 1450 1452 1454 1456 1459 1463 1467 1469 1473 1477 1481 1484 1486 1489 1491 1493 1495 1496 1498 1499 1501 1502 1503 1504 1505 1506 1507 1508 1508 1509 1510 1509 1509 1509 1508 1508 1508 1507
1449 1449 1450 1451 1452 1453 1454 1455 1457 1460 1464 1467 1471 1474 1478 1482 1486 1488 1491 1494 1496 1498 1499 1500 1502 1503 1504 1505 1506 1507 1508 1508 1508 1509 1510 1511 1511 1511 1511 1511 1510 1509 1508 1507
1449 1449 1450 1452 1454 1456 1458 1460 1462 1466 1470 1473 1477 1480 1483 1486 1490 1493 1496 1499 1500 1502 1503 1504 1505 1506 1507 1508 1509 1509 1510 1510 1511 1511 1512 1512 1512 1512 1512 1511 1511 1511 1510 1508
1451 1452 1453 1455 1458 1460 1463 1465 1467 1472 1475 1478 1482 1485 1488 1492 1494 1497 1500 1503 1504 1505 1506 1507 1508 1509 1510 1511 1511 1512 1512 1512 1512 1513 1513 1513 1512 1512 1512 1512 1511 1511 1510 1509
1454 1455 1457 1460 1462 1465 1468 1470 1473 1476 1480 1483 1487 1490 1493 1496 1498 1501 1504 1506 1506 1508 1509 1510 1511 1512 1512 1513 1514 1515 1515 1514 1514 1514 1514 1514 1514 1513 1513 1512 1511 1511 1510 1508
1457 1459 1461 1463 1466 1469 1473 1476 1479 1482 1485 1488 1491 1494 1497 1500 1502 1505 1507 1508 1510 1511 1512 1513 1513 1514 1514 1514 1515 1516 1516 1516 1516 1515 1515 1514 1514 1514 1513 1512 1511 1511 1510 1509
1460 1463 1466 1468 1471 1474 1477 1481 1484 1487 1490 1493 1496 1498 1501 1504 1506 1507 1509 1511 1512 1513 1514 1514 1515 1516 1516 1515 1516 1516 1517 1516 1516 1516 1515 1514 1514 1514 1513 1512 1511 1511 1510 1509
1465 1468 1470 1474 1476 1479 1482 1485 1488 1491 1494 1497 1499 1502 1504 1506 1508 1510 1512 1513 1514 1515 1515 1516 1517 1517 1517 1516 1516 1517 1517 1516 1516 1516 1516 1515 1514 1514 1513 1512 1511 1510 1509 1508
1469 1472 1475 1478 1481 1484 1487 1490 1492 1495 1498 1500 1502 1505 1507 1509 1511 1512 1514 1515 1515 1516 1517 1517 1517 1517 1517 1517 1517 1517 1517 1517 1516 1516 1516 1515 1514 1514 1513 1512 1511 1510 1509 1508
1474 1476 1479 1482 1485 1488 1491 1494 1496 1498 1501 1503 1505 1507 1509 1510 1512 1513 1515 1516 1516 1517 1518 1518 1518 1517 1516 1517 1518 1517 1517 1516 1516 1516 1515 1515 1514 1513 1512 1511 1510 1509 1508 1507
1478 1481 1484 1486 1489 1491 1494 1497 1499 1501 1503 1505 1507 1509 1511 1512 1514 1515 1516 1517 1517 1517 1518 1518 1517 1516 1516 1518 1517 1517 1517 1516 1516 1516 1515 1514 1514 1513 1512 1511 1510 1509 1508 1506
1483 1485 1488 1490 1492 1495 1497 1500 1502 1503 1505 1507 1509 1510 1512 1513 1514 1515 1515 1516 1516 1517 1517 1517 1517 1516 1517 1518 1517 1517 1517 1517 1516 1516 1515 1515 1514 1513 1512 1511 1510 1509 1507 1506
1487 1489 1491 1494 1496 1498 1500 1502 1504 1506 1507 1509 1510 1512 1513 1514 1515 1515 1516 1516 1516 1517 1518 1517 1517 1517 1518 1518 1517 1517 1517 1517 1516 1516 1515 1515 1514 1513 1512 1511 1510 1509 1507 1506
1491 1493 1495 1497 1499 1501 1503 1505 1506 1508 1509 1510 1511 1512 1513 1514 1515 1515 1516 1517 1517 1517 1518 1518 1518 1518 1518 1518 1518 1518 1517 1517 1517 1516 1516 1515 1515 1513 1512 1511 1510 1509 1507 1506
1495 1497 1499 1501 1502 1504 1505 1506 1508 1509 1510 1511 1512 1513 1514 1515 1515 1516 1516 1517 1517 1518 1518 1518 1519 1519 1519 1518 1518 1518 1518 1518 1517 1517 1516 1515 1515 1514 1513 1512 1511 1509 1508 1506